DW9882 Weather Reports


time (UTC)temp
F
wind
direction
speed
knots
gust
knots
rain 1hr
in
rain 24hr
in
rain mn
in
humidity
%
barometer
mb
20260902035703 69 217 0.0 0.0 0.00 0.02 0.02 53 1019.4
20260902035204 69 217 0.0 0.0 0.00 0.02 0.02 53 1019.4
20260902034704 69 217 0.0 0.0 0.00 0.02 0.02 52 1019.4
20260902034205 70 217 0.9 2.6 0.00 0.02 0.02 51 1019.3
20260902033704 70 28 0.0 0.9 0.00 0.02 0.02 51 1019.4
20260902033203 70 28 0.0 0.0 0.00 0.02 0.02 50 1019.3
20260902032204 71 28 0.0 0.9 0.00 0.02 0.02 49 1019.3
20260902031704 71 28 0.0 0.0 0.00 0.02 0.02 48 1019.3
20260902031204 72 28 0.0 0.9 0.00 0.02 0.02 48 1019.2
20260902030704 72 28 0.0 0.0 0.00 0.02 0.02 47 1019.2
20260902030204 73 28 0.0 0.9 0.00 0.02 0.02 47 1019.3
20260902025704 73 28 0.0 1.7 0.00 0.02 0.02 45 1019.3
20260902025204 74 28 0.0 0.0 0.00 0.02 0.02 44 1019.2
20260902024703 74 28 0.0 0.9 0.00 0.02 0.02 43 1019.2
20260902024203 75 28 0.0 0.0 0.00 0.03 0.02 42 1019.1
20260902023204 76 28 0.0 0.0 0.00 0.04 0.02 39 1018.8
20260902022704 76 28 0.9 1.7 0.00 0.06 0.02 39 1018.8
20260902021706 77 28 0.0 0.0 0.00 0.10 0.02 37 1018.7
20260902021205 77 28 0.0 0.0 0.00 0.11 0.02 35 1018.6
20260902020705 78 28 0.0 0.9 0.00 0.12 0.02 35 1018.5
20260902015706 78 28 0.0 2.6 0.00 0.15 0.02 34 1018.4
20260902015206 78 28 0.9 2.6 0.00 0.16 0.02 34 1018.5
20260902014705 79 28 0.9 2.6 0.00 0.16 0.02 34 1018.5
20260902013205 79 353 0.9 4.3 0.00 0.16 0.02 33 1018.5
20260902012705 80 13 0.9 2.6 0.00 0.16 0.02 32 1018.5
20260902012206 80 12 1.7 4.3 0.00 0.16 0.02 31 1018.5
20260902011705 80 0 1.7 4.3 0.00 0.16 0.02 30 1018.4
20260902011205 80 12 0.9 2.6 0.00 0.16 0.02 31 1018.3
20260902010705 81 308 0.9 8.7 0.00 0.16 0.02 32 1018.3
20260902010206 81 355 0.0 1.7 0.00 0.16 0.02 32 1018.3
20260902005705 82 355 0.0 4.3 0.00 0.16 0.02 31 1018.1
20260902005205 82 18 0.0 0.9 0.00 0.16 0.02 30 1018.1
20260902004706 82 18 0.0 0.0 0.00 0.16 0.02 32 1018.2
20260902003705 83 18 0.0 0.0 0.00 0.16 0.02 31 1018.1
20260902003206 83 18 0.0 0.0 0.00 0.16 0.02 31 1018.1
20260902002705 83 18 0.0 0.0 0.00 0.16 0.02 31 1018.2
20260902002205 84 18 0.0 0.0 0.00 0.16 0.02 33 1018.2
20260902001205 84 18 0.9 2.6 0.00 0.16 0.02 28 1018.2
20260902000706 84 18 1.7 6.1 0.00 0.16 0.02 28 1018.2
20260902000205 84 48 0.0 1.7 0.00 0.16 0.02 30 1018.2
20260901235705 85 48 0.9 2.6 0.00 0.16 0.02 27 1018.2
20260901235206 85 58 1.7 4.3 0.00 0.16 0.02 27 1018.2
20260901234706 85 36 0.9 2.6 0.00 0.16 0.02 28 1018.2
20260901234206 85 9 1.7 2.6 0.00 0.16 0.02 27 1018.2
20260901233706 86 65 1.7 2.6 0.00 0.16 0.02 26 1018.2
20260901232706 87 342 3.5 6.1 0.00 0.16 0.02 26 1018.2
20260901232205 87 353 1.7 4.3 0.00 0.16 0.02 27 1018.2
20260901231705 87 10 1.7 4.3 0.00 0.16 0.02 26 1018.2
20260901231205 87 68 2.6 6.1 0.00 0.16 0.02 26 1018.2
20260901230705 87 94 0.9 2.6 0.00 0.16 0.02 27 1018.2
20260901230206 86 114 0.9 2.6 0.00 0.16 0.02 28 1018.2
20260901225706 86 53 1.7 4.3 0.00 0.16 0.02 28 1018.2
20260901225205 86 93 0.9 5.2 0.00 0.16 0.02 29 1018.2
20260901224205 86 0 0.9 5.2 0.00 0.16 0.02 28 1018.3
20260901223705 86 5 1.7 2.6 0.00 0.16 0.02 28 1018.3
20260901223205 86 40 1.7 6.1 0.00 0.16 0.02 28 1018.3
20260901222705 86 19 0.9 7.0 0.00 0.16 0.02 30 1018.3
20260901222205 86 351 1.7 4.3 0.00 0.16 0.02 29 1018.4
20260901221706 85 21 2.6 6.1 0.00 0.16 0.02 27 1018.4
20260901221205 85 75 1.7 6.1 0.00 0.16 0.02 28 1018.5
20260901220705 85 49 2.6 7.8 0.00 0.16 0.02 27 1018.5
20260901220205 85 31 1.7 7.8 0.00 0.16 0.02 28 1018.5
20260901215706 85 23 1.7 7.0 0.00 0.16 0.02 28 1018.6
20260901215206 85 30 2.6 7.0 0.00 0.16 0.02 28 1018.6
20260901214705 86 11 3.5 7.8 0.00 0.16 0.02 28 1018.6
20260901214206 86 20 0.9 7.8 0.00 0.16 0.02 28 1018.6
20260901213705 86 5 1.7 5.2 0.00 0.16 0.02 27 1018.7
20260901213206 87 345 1.7 5.2 0.00 0.16 0.02 28 1018.7
20260901212705 87 33 0.9 2.6 0.00 0.16 0.02 29 1018.8
20260901212205 87 25 0.0 2.6 0.00 0.16 0.02 28 1018.7
20260901211705 87 24 1.7 5.2 0.00 0.16 0.02 28 1018.7
20260901210705 86 92 0.9 2.6 0.00 0.16 0.02 29 1018.8
20260901210205 86 90 0.9 1.7 0.00 0.16 0.02 33 1018.8
20260901205705 86 90 0.9 2.6 0.00 0.16 0.02 29 1018.9
20260901205205 86 74 0.0 2.6 0.00 0.16 0.02 30 1018.9
20260901204705 87 40 2.6 6.1 0.00 0.16 0.02 28 1018.9
20260901204205 87 110 0.9 2.6 0.00 0.16 0.02 28 1018.9
20260901203705 87 101 0.9 1.7 0.00 0.16 0.02 32 1018.9
20260901203205 86 136 0.9 2.6 0.00 0.16 0.02 30 1019.0
20260901202705 86 107 0.9 6.1 0.00 0.16 0.02 32 1019.1
20260901202206 86 116 0.9 2.6 0.00 0.16 0.02 32 1019.1
20260901201705 85 136 0.0 2.6 0.00 0.16 0.02 34 1019.2
20260901201205 85 74 0.9 5.2 0.00 0.16 0.02 31 1019.2
20260901200705 84 13 0.9 2.6 0.00 0.16 0.02 32 1019.2
20260901200205 84 13 1.7 4.3 0.00 0.16 0.02 31 1019.3
20260901195705 83 99 0.9 2.6 0.00 0.16 0.02 33 1019.4
20260901194705 82 89 0.9 2.6 0.00 0.16 0.02 33 1019.5
20260901194205 82 93 0.9 2.6 0.00 0.16 0.02 38 1019.5
20260901193705 81 47 1.7 2.6 0.00 0.16 0.02 35 1019.5
20260901192706 80 51 0.9 2.6 0.00 0.16 0.02 38 1019.6
20260901192205 80 64 1.7 2.6 0.00 0.16 0.02 36 1019.6
20260901191705 81 53 0.9 1.7 0.00 0.16 0.02 37 1019.8
20260901191206 81 15 0.0 2.6 0.00 0.16 0.02 38 1019.8
20260901190705 81 65 0.0 2.6 0.00 0.16 0.02 38 1019.8
20260901190205 82 76 0.0 1.7 0.00 0.16 0.02 35 1019.8
20260901185705 82 120 0.9 2.6 0.00 0.16 0.02 36 1019.9
20260901185205 82 136 0.9 4.3 0.00 0.16 0.02 38 1019.9
20260901184205 82 44 1.7 2.6 0.00 0.16 0.02 38 1020.1
20260901183205 81 119 0.9 2.6 0.00 0.16 0.02 40 1020.0
20260901182705 81 133 1.7 2.6 0.00 0.16 0.02 41 1020.1
20260901182205 81 44 1.7 4.3 0.00 0.16 0.02 41 1020.1
20260901181705 81 100 0.9 5.2 0.00 0.16 0.02 42 1020.2
20260901181205 80 149 1.7 6.1 0.00 0.16 0.02 42 1020.3
20260901180705 80 98 1.7 5.2 0.00 0.16 0.02 41 1020.3
20260901180205 80 107 1.7 7.0 0.00 0.16 0.02 41 1020.4
20260901175705 80 118 0.9 4.3 0.00 0.16 0.02 44 1020.4
20260901175205 79 146 1.7 2.6 0.00 0.16 0.02 44 1020.6
20260901174704 79 131 0.9 2.6 0.00 0.16 0.02 44 1020.6
20260901173705 78 124 1.7 5.2 0.00 0.16 0.02 48 1020.7
20260901173205 78 111 0.9 4.3 0.00 0.16 0.02 48 1020.8
20260901172705 77 153 1.7 6.1 0.00 0.16 0.02 47 1020.8
20260901172205 77 159 0.9 4.3 0.00 0.16 0.02 50 1020.9
20260901171204 76 131 0.9 2.6 0.00 0.16 0.02 55 1021.0
20260901170704 75 97 0.9 2.6 0.00 0.16 0.02 54 1021.0
20260901165205 73 178 0.9 1.7 0.00 0.16 0.02 63 1021.0
20260901164705 71 178 0.0 1.7 0.00 0.16 0.02 68 1021.0
20260901163705 69 157 0.0 0.9 0.00 0.16 0.02 80 1021.0
20260901162705 67 273 0.0 1.7 0.00 0.16 0.02 88 1021.1
20260901162205 66 273 0.0 1.7 0.00 0.16 0.02 92 1021.1
20260901161705 65 273 0.0 0.9 0.00 0.16 0.02 94 1021.2
20260901161204 64 273 0.0 0.9 0.00 0.16 0.02 94 1021.1
20260901160706 64 273 0.0 1.7 0.00 0.16 0.02 96 1021.2
20260901160205 63 273 0.0 1.7 0.00 0.16 0.02 96 1021.2
20260901155704 63 273 0.0 1.7 0.00 0.16 0.02 96 1021.1
20260901155205 63 225 0.0 1.7 0.00 0.16 0.02 96 1021.2
20260901154705 63 225 0.0 0.9 0.00 0.16 0.02 97 1021.2
20260901154204 63 225 0.0 0.0 0.00 0.16 0.02 97 1021.2
20260901153705 62 225 0.0 0.0 0.00 0.16 0.02 96 1021.2
20260901152704 62 225 0.0 0.0 0.00 0.16 0.02 96 1021.2
20260901152204 62 225 0.0 0.0 0.00 0.16 0.02 97 1021.2
20260901151705 62 225 0.0 0.0 0.00 0.16 0.02 96 1021.1
20260901151205 61 225 0.0 0.0 0.00 0.16 0.02 96 1021.1
20260901150704 61 225 0.0 0.0 0.00 0.16 0.02 96 1021.0
20260901150205 61 225 0.0 0.0 0.00 0.16 0.02 96 1021.0
20260901145705 61 225 0.0 0.0 0.00 0.16 0.02 96 1021.1
20260901145205 60 225 0.0 0.0 0.00 0.16 0.02 96 1021.1
20260901144204 60 225 0.0 0.0 0.00 0.16 0.02 96 1021.2
20260901143705 60 225 0.0 0.0 0.00 0.16 0.02 96 1021.2
20260901143204 59 225 0.0 0.0 0.00 0.16 0.02 96 1021.2
20260901142705 59 225 0.0 0.0 0.00 0.16 0.02 96 1021.2
20260901142204 59 225 0.0 0.0 0.00 0.16 0.02 96 1021.1
20260901141705 59 225 0.0 0.0 0.00 0.16 0.02 96 1021.1
20260901140704 59 225 0.0 0.0 0.00 0.16 0.02 96 1021.2
20260901135705 58 225 0.0 0.0 0.00 0.16 0.02 95 1021.0
20260901134205 58 225 0.0 0.0 0.00 0.16 0.02 95 1021.0
20260901133704 58 225 0.0 0.0 0.00 0.16 0.02 95 1021.0
20260901133205 58 225 0.0 0.0 0.00 0.16 0.02 95 1021.0
20260901132705 58 225 0.0 0.0 0.00 0.16 0.02 95 1020.9
20260901132204 58 225 0.0 0.0 0.00 0.16 0.02 95 1020.9
20260901131704 58 225 0.0 0.0 0.00 0.16 0.02 95 1020.9
20260901131205 58 225 0.0 0.0 0.00 0.16 0.02 95 1020.7
20260901130204 58 225 0.0 0.0 0.00 0.16 0.02 95 1020.5
20260901125704 58 225 0.0 0.0 0.00 0.16 0.02 95 1020.4
20260901125205 58 225 0.0 0.0 0.00 0.16 0.02 95 1020.3
20260901124705 58 225 0.0 0.0 0.00 0.16 0.02 95 1020.2
20260901123705 58 225 0.0 0.0 0.00 0.16 0.02 95 1020.1
20260901123204 58 225 0.0 0.0 0.00 0.16 0.02 95 1020.0
20260901122704 58 225 0.0 0.0 0.00 0.16 0.02 95 1020.0
20260901122204 58 225 0.0 0.9 0.00 0.16 0.02 95 1019.9
20260901121704 58 225 0.0 0.0 0.00 0.16 0.02 95 1019.9
20260901120705 58 225 0.0 0.0 0.00 0.16 0.02 95 1019.9
20260901115704 58 225 0.0 0.0 0.00 0.16 0.02 95 1020.1
20260901115204 58 225 0.0 0.0 0.00 0.16 0.02 95 1020.2
20260901114704 58 225 0.0 0.0 0.00 0.16 0.02 95 1020.2
20260901114205 58 225 0.0 0.0 0.00 0.16 0.02 95 1020.1
20260901113704 58 225 0.0 0.0 0.00 0.16 0.02 95 1020.1
20260901113204 58 225 0.0 0.0 0.00 0.16 0.02 95 1020.1
20260901112704 58 225 0.0 0.0 0.00 0.16 0.02 94 1020.2
20260901112205 59 225 0.0 0.0 0.00 0.16 0.02 94 1020.1
20260901111704 59 225 0.0 0.0 0.00 0.16 0.02 94 1020.1
20260901111204 59 225 0.0 0.0 0.00 0.16 0.02 94 1020.1
20260901110705 59 225 0.0 0.0 0.00 0.16 0.02 94 1020.3
20260901105704 59 225 0.0 0.0 0.00 0.16 0.02 95 1020.3
20260901105205 59 225 0.0 0.0 0.00 0.16 0.02 95 1020.3
20260901104204 59 225 0.0 0.0 0.00 0.16 0.02 94 1020.3
20260901103705 59 225 0.0 0.0 0.00 0.16 0.02 94 1020.2
20260901103204 59 225 0.0 0.0 0.00 0.16 0.02 94 1020.3
20260901102704 59 225 0.0 0.0 0.00 0.16 0.02 94 1020.3
20260901101204 59 225 0.0 0.0 0.00 0.16 0.02 94 1020.7
20260901100704 59 225 0.0 0.0 0.00 0.16 0.02 94 1020.7
20260901100204 59 225 0.0 0.0 0.00 0.16 0.02 94 1020.7
20260901095704 59 225 0.0 0.0 0.00 0.16 0.02 94 1020.8
20260901095204 59 225 0.0 1.7 0.00 0.16 0.02 94 1021.0
20260901094704 60 225 0.0 0.9 0.00 0.16 0.02 94 1021.0
20260901094205 60 225 0.0 0.0 0.00 0.16 0.02 94 1021.0
20260901093704 60 225 0.0 0.0 0.00 0.16 0.02 94 1021.0
20260901093205 60 225 0.0 0.9 0.00 0.16 0.02 94 1021.1
20260901092704 60 225 0.0 0.0 0.00 0.16 0.02 94 1021.1
20260901092204 60 225 0.0 0.0 0.00 0.16 0.02 94 1021.2
20260901091704 60 225 0.0 0.0 0.00 0.16 0.02 94 1021.2
20260901091204 60 225 0.0 0.0 0.00 0.16 0.02 94 1021.2
20260901090704 61 225 0.0 0.0 0.00 0.16 0.02 94 1021.1
20260901085705 61 225 0.0 0.0 0.00 0.16 0.02 94 1021.2
20260901085204 61 225 0.0 0.0 0.00 0.16 0.02 94 1021.2
20260901084704 61 225 0.0 0.0 0.00 0.16 0.02 94 1021.3
20260901084205 61 225 0.0 0.0 0.00 0.16 0.02 94 1021.2
20260901083704 61 225 0.0 0.0 0.00 0.16 0.02 94 1021.3
20260901082704 61 225 0.0 0.0 0.00 0.16 0.02 94 1021.4
20260901082204 61 225 0.0 0.0 0.00 0.16 0.02 94 1021.4
20260901081704 61 225 0.0 0.0 0.00 0.16 0.02 94 1021.3
20260901081205 61 225 0.0 0.0 0.01 0.16 0.02 94 1021.4
20260901080204 61 225 0.0 0.0 0.01 0.16 0.02 94 1021.6
20260901075704 61 225 0.0 0.0 0.01 0.16 0.02 94 1021.6
20260901075204 61 225 0.0 0.0 0.01 0.16 0.02 94 1021.6
20260901074704 61 225 0.0 0.0 0.01 0.16 0.02 94 1021.7
20260901074204 61 225 0.0 0.0 0.01 0.16 0.02 94 1021.7
20260901073704 61 225 0.0 0.0 0.01 0.16 0.02 94 1021.7
20260901073204 61 225 0.0 0.0 0.01 0.16 0.02 94 1021.8
20260901072704 61 225 0.0 0.0 0.01 0.16 0.02 94 1021.8
20260901072204 61 225 0.0 0.0 0.01 0.16 0.02 93 1021.7
20260901071704 61 225 0.0 0.0 0.01 0.16 0.02 93 1021.8
20260901071204 61 225 0.0 0.9 0.01 0.15 0.01 93 1021.8
20260901070704 61 225 0.0 0.9 0.01 0.15 0.01 93 1021.9
20260901070204 61 225 0.0 0.9 0.01 0.15 0.01 93 1021.9
20260901065704 61 225 0.0 0.0 0.01 0.15 0.01 93 1022.1
20260901064704 61 225 0.0 0.0 0.01 0.15 0.01 93 1022.2
20260901064204 61 225 0.0 0.0 0.01 0.15 0.01 93 1022.0
20260901063704 61 225 0.0 0.0 0.01 0.15 0.01 93 1021.9
20260901063204 61 225 0.0 0.0 0.01 0.15 0.01 93 1021.8
20260901062704 61 225 0.0 1.7 0.01 0.15 0.01 93 1021.8
20260901062204 61 225 0.0 0.0 0.01 0.15 0.01 93 1021.9
20260901061705 61 225 0.0 0.0 0.01 0.15 0.01 93 1021.9
20260901061204 61 225 0.0 0.9 0.00 0.14 0.00 93 1021.8
20260901060204 61 225 0.0 0.9 0.00 0.14 0.00 93 1022.2
20260901055704 61 225 0.0 0.0 0.00 0.14 0.14 92 1021.9
20260901055204 61 225 0.0 0.0 0.00 0.14 0.14 92 1021.9
20260901054704 61 225 0.0 0.0 0.00 0.14 0.14 92 1021.8
20260901054204 62 225 0.0 0.0 0.00 0.14 0.14 92 1021.7
20260901053704 62 225 0.0 0.0 0.00 0.14 0.14 92 1021.5
20260901053204 62 225 0.0 0.0 0.00 0.14 0.14 92 1021.5
20260901052704 62 225 0.0 0.0 0.00 0.14 0.14 92 1021.6
20260901051704 62 225 0.0 0.0 0.00 0.14 0.14 92 1021.8
20260901051203 62 225 0.0 0.9 0.00 0.14 0.14 92 1021.7
20260901050704 62 225 0.0 0.0 0.00 0.14 0.14 92 1021.7
20260901045704 62 225 0.0 0.0 0.00 0.14 0.14 91 1021.7
20260901045204 62 225 0.0 0.0 0.00 0.14 0.14 91 1021.7
20260901044704 62 225 0.0 0.0 0.00 0.14 0.14 91 1021.7
20260901043704 62 225 0.0 0.0 0.00 0.14 0.14 91 1021.7
20260901042704 62 225 0.0 0.0 0.00 0.14 0.14 91 1021.8
20260901042204 62 225 0.0 0.0 0.00 0.14 0.14 91 1021.9
20260901041704 63 225 0.0 0.0 0.00 0.14 0.14 90 1021.9
20260901041204 63 225 0.0 0.0 0.00 0.14 0.14 90 1022.0
20260901040704 63 225 0.0 0.0 0.00 0.14 0.14 90 1022.0